User: anonymous   Login
Location: Unspecified
(0.0000°N, 0.0000°E)
Time: 01:57:23
(UTC+00:00)
Language:

Falconsat - Orbit

View from above orbital plane
View from above orbital plane
View from above satellite
View from above satellite

Ground track
Ground track

The orbit data is extracted from the following two-line orbital elements,

1 26064U 00004D   17147.93629810 -.00000029 +00000-0 +10224-4 0  9995
2 26064 100.2292 143.5645 0038025 020.5357 339.7342 14.36124847907944
Epoch (UTC): 27 May 2017 22:28:16
Eccentricity: 0.0038025
inclination: 100.2292°
perigee height: 744 km
apogee height: 798 km
right ascension of ascending node: 143.5645°
argument of perigee: 20.5357°
revolutions per day: 14.36124847
mean anomaly at epoch: 339.7342°
orbit number at epoch: 90794

The dashed part of the orbit path shows where the satellite is in the earth's shadow,  

DLR